User: anonymous   Login
Location: Unspecified
(0.0000°N, 0.0000°E)
Time: 12:30:09
(UTC+00:00)
Language:

Tiros 3 - Orbit

View from above orbital plane
View from above orbital plane
View from above satellite
View from above satellite

Ground track
Ground track

The orbit data is extracted from the following two-line orbital elements,

1   162U 61017A   17345.78901583 -.00000126 +00000-0 +10765-4 0  9998
2   162 047.9002 089.1772 0044984 175.8363 184.2912 14.43990256942307
Epoch (UTC): 11 December 2017 18:56:10
Eccentricity: 0.0044984
inclination: 47.9002°
perigee height: 713 km
apogee height: 777 km
right ascension of ascending node: 89.1772°
argument of perigee: 175.8363°
revolutions per day: 14.43990256
mean anomaly at epoch: 184.2912°
orbit number at epoch: 94230

The dashed part of the orbit path shows where the satellite is in the earth's shadow,  

DLR